[[{"header":{"parameterUnit":"m.s-1","parameterCategory":1,"la1":30.2992,"la2":30.254,"lo1":-89.0895,"lo2":-89.0443,"dy":0.0025,"dx":0.0025,"nx":19,"ny":19,"refTime":"2026-05-07T09:00:00:Z","depth":0,"parameterNumber":2,"parameterNumberName":"U-component_of_WINDS"},"data":[0,0,0,-2.9331,-2.9334,-2.9464,-2.9465,-2.9636,-2.9637,0,0,0,0,0,0,0,0,0,0,0,-2.9294,-2.9296,-2.9331,-2.9334,-2.9464,-2.9465,-2.9635,-2.9637,0,0,0,0,0,0,0,0,0,0,0,-2.9294,-2.9295,-2.9297,-2.9335,-2.9464,-2.9465,-2.9635,-2.9535,0,0,0,0,0,0,0,0,0,0,-2.9408,-2.9376,-2.9295,-2.9297,-2.9335,-2.9464,-2.9465,-2.953,-2.9542,-2.9578,0,-2.9611,0,-2.9627,-2.9649,-2.9649,0,0,0,-2.9333,-2.9367,-2.94,-2.9297,-2.9337,-2.9464,-2.9405,-2.9537,-2.9549,-2.9593,-2.9613,-2.9619,-2.9629,-2.965,-2.9651,-2.9865,-2.9866,0,0,-2.9326,-2.9319,-2.9391,-2.9408,-2.9388,-2.9401,-2.9409,-2.9544,-2.9566,-2.9614,-2.9623,-2.9632,-2.9651,-2.9652,-2.9864,-2.9865,0,0,0,-2.9306,-2.9314,-2.9344,-2.9401,-2.9424,-2.9405,-2.9414,-2.956,-2.957,-2.9625,-2.9634,-2.9652,-2.9654,-2.9863,-2.9864,-2.9909,0,0,0,-2.9301,-2.9302,-2.9341,-2.9338,-2.9422,-2.9494,-2.9427,-2.9561,-2.9576,-2.9633,-2.9652,-2.9656,-2.9861,-2.9863,-2.9905,-2.993,0,0,0,-2.9285,-2.9301,-2.932,-2.9337,-2.9393,-2.9492,-2.951,-2.9564,-2.9582,-2.965,-2.9656,-2.9861,-2.9863,-2.9902,-2.9925,-2.9984,0,0,0,-2.9266,-2.9358,-2.9321,-2.9427,-2.9392,-2.9518,-2.9509,-2.9604,-2.9667,-2.9653,-2.9862,-2.9864,-2.9901,-2.9922,-2.998,-3.0031,-3.0052,0,0,-2.9379,-2.9372,-2.9435,-2.9405,-2.9536,-2.9499,-2.9637,-2.9702,-2.9715,-2.9814,-2.982,-2.9906,-2.9925,-2.9983,-3.0174,-3.019,0,0,0,-2.9469,-2.9514,-2.955,-2.961,-2.9661,-2.9707,-2.9751,-2.9776,-2.986,-2.9765,-2.9944,-2.9956,-2.999,-3.0015,-3.0029,-3.0058,-2.9875,-2.9875,-2.9875,-2.9618,-2.9629,-2.9734,-2.9761,-2.982,-2.9864,-2.9913,-2.9953,-2.9948,-2.9991,-3.0019,-3.0133,-3.0162,-3.0173,-3.0203,-3.0048,-3.0049,-3.0049,-3.0049,-2.9783,-2.9848,-2.9839,-2.9938,-2.995,-3.0034,-3.0081,-3.0075,-3.0155,-3.0113,-3.0144,-3.0095,-3.019,-3.0218,-3.0052,-3.0052,-3.0051,-3.0051,-3.0051,-2.9881,-2.9914,-2.9941,-3.0028,-3.0094,-3.0119,-3.0196,-3.0205,-3.0214,-3.0245,-3.0276,-3.0275,-3.0274,-3.0259,-3.0259,-3.026,-3.026,-3.026,-3.0261,-2.9971,-3.0,-3.0063,-3.0125,-3.0164,-3.0217,-3.0264,-3.0303,-3.0349,-3.0349,-3.0349,-3.034,-3.0198,-3.0161,-3.0267,-3.0266,-3.0265,-3.0264,-3.0264,-3.0131,-3.0096,-3.0193,-3.0233,-3.0306,-3.0371,-3.0382,-3.0461,-3.0495,-3.0532,-3.0517,-3.0411,-3.0404,-3.0393,-3.0363,-3.0515,-3.0515,-3.0515,-3.0515,-3.0213,-3.0211,-3.0311,-3.0373,-3.0435,-3.0455,-3.0565,-3.0602,-3.0636,-3.0658,-3.0637,-3.0598,-3.0587,-3.0587,-3.0572,-3.0543,-3.0738,-3.0738,-3.0738,-3.0312,-3.0316,-3.0407,-3.0438,-3.0497,-3.0547,-3.0651,-3.0723,-3.0754,-3.0747,-3.0675,-3.0665,-3.0602,-3.0581,-3.0571,-3.0547,-3.0495,0,0]},{"header":{"parameterUnit":"m.s-1","parameterCategory":1,"la1":30.2992,"la2":30.254,"lo1":-89.0895,"lo2":-89.0443,"dy":0.0025,"dx":0.0025,"nx":19,"ny":19,"refTime":"2026-05-07T09:00:00:Z","depth":0,"parameterNumber":3,"parameterNumberName":"V-component_of_WINDS"},"data":[0,0,0,4.3144,4.3146,4.3239,4.324,4.3367,4.3368,0,0,0,0,0,0,0,0,0,0,0,4.3123,4.3124,4.3144,4.3146,4.3239,4.324,4.3366,4.3368,0,0,0,0,0,0,0,0,0,0,0,4.3123,4.3124,4.3126,4.3147,4.3239,4.324,4.3366,4.3292,0,0,0,0,0,0,0,0,0,0,4.32,4.3189,4.3124,4.3126,4.3147,4.3239,4.324,4.3289,4.3297,4.3329,0,4.3361,0,4.3366,4.3377,4.3378,0,0,0,4.314,4.3182,4.3201,4.3126,4.3148,4.3239,4.3196,4.3293,4.3303,4.334,4.3362,4.3367,4.3369,4.3378,4.3379,4.3585,4.3586,0,0,4.3135,4.3143,4.3195,4.3208,4.3196,4.3193,4.3199,4.3299,4.3323,4.3363,4.3369,4.3371,4.3379,4.338,4.3584,4.3585,0,0,0,4.3124,4.314,4.3156,4.3203,4.3219,4.3195,4.3202,4.3319,4.3323,4.3371,4.3372,4.338,4.3381,4.3582,4.3584,4.3654,0,0,0,4.3121,4.3134,4.3154,4.316,4.3217,4.327,4.322,4.3316,4.3327,4.3372,4.338,4.3383,4.3581,4.3583,4.3649,4.3685,0,0,0,4.3115,4.3133,4.3149,4.316,4.3201,4.3269,4.3279,4.3319,4.3329,4.3378,4.3383,4.358,4.3583,4.3644,4.3677,4.3741,0,0,0,4.311,4.3209,4.315,4.3261,4.3201,4.3312,4.3278,4.336,4.3411,4.338,4.3581,4.3584,4.3643,4.3673,4.3736,4.3795,4.3821,0,0,4.3239,4.3225,4.3289,4.324,4.3364,4.3297,4.343,4.3468,4.3464,4.3544,4.3549,4.365,4.3677,4.374,4.3963,4.3984,0,0,0,4.3333,4.3379,4.341,4.346,4.3492,4.3522,4.3538,4.3552,4.362,4.3508,4.3691,4.3706,4.3743,4.377,4.3788,4.3818,4.3597,4.3597,4.3597,4.3527,4.3518,4.3624,4.3626,4.3674,4.3691,4.3728,4.3749,4.3725,4.3768,4.3792,4.3929,4.3962,4.3975,4.4006,4.3823,4.3823,4.3824,4.3824,4.3715,4.3778,4.3745,4.3836,4.3826,4.3901,4.392,4.3901,4.3968,4.391,4.3942,4.3879,4.3997,4.4024,4.3829,4.3828,4.3827,4.3827,4.3826,4.384,4.3869,4.3885,4.3955,4.401,4.4008,4.4075,4.4063,4.4051,4.4083,4.4105,4.4104,4.41,4.4095,4.4095,4.4096,4.4096,4.4096,4.4097,4.3963,4.3979,4.4038,4.4081,4.411,4.4148,4.4165,4.4193,4.4221,4.4207,4.4207,4.4178,4.4011,4.3969,4.4104,4.4103,4.4102,4.4101,4.41,4.4155,4.411,4.4201,4.4231,4.4279,4.4334,4.4318,4.4376,4.4397,4.443,4.4395,4.4274,4.4258,4.4244,4.4209,4.4398,4.4398,4.4398,4.4398,4.426,4.4251,4.4341,4.439,4.4436,4.443,4.4531,4.4545,4.4552,4.4564,4.4535,4.4488,4.4474,4.4466,4.4447,4.4414,4.4651,4.4651,4.4651,4.4377,4.4372,4.4461,4.4469,4.4506,4.4538,4.4631,4.4687,4.4685,4.4661,4.4573,4.4562,4.4486,4.4462,4.4435,4.4406,4.4345,0,0]}]]